• In Hungary
  • List of Countries
  • For 7 days
  • Water Temperature
  • Satellite Maps
  • Weather Map
  • News
  • Weather Widgets
  • user-avatar
    Login

    Hourly Weather Neshville

    Today, 22 October, Sunday

    Time Temperature Precipitation Wind Pressure Humidity
    00:00 +19°C° 0 mm 5 mps 754 mmHg 59%
    01:00 +19°C° 0 mm 5 mps 754 mmHg 59%
    02:00 +19°C° 0 mm 5 mps 753 mmHg 59%
    03:00 +19°C° 0 mm 5 mps 753 mmHg 59%
    04:00 +19°C° 0 mm 5 mps 753 mmHg 62%
    05:00 +19°C° 0 mm 5 mps 753 mmHg 64%
    06:00 +17°C° 0 mm 5 mps 754 mmHg 67%
    07:00 +20°C° 0 mm 5 mps 754 mmHg 67%
    08:00 +21°C° 0 mm 6 mps 754 mmHg 67%
    09:00 +22°C° 0 mm 7 mps 754 mmHg 66%
    10:00 +23°C° 0 mm 7 mps 753 mmHg 65%
    11:00 +24°C° 0 mm 7 mps 753 mmHg 64%
    12:00 +27°C° 0 mm 7 mps 753 mmHg 62%
    13:00 +26°C° 0.2 mm 6 mps 752 mmHg 65%
    14:00 +26°C° 0.2 mm 5 mps 751 mmHg 68%
    15:00 +26°C° 0.2 mm 4 mps 750 mmHg 70%
    16:00 +25°C° 1.6 mm 4 mps 750 mmHg 74%
    17:00 +23°C° 1.6 mm 4 mps 750 mmHg 78%
    18:00 +22°C° 1.6 mm 4 mps 750 mmHg 81%
    19:00 +22°C° 4.4 mm 4 mps 750 mmHg 84%
    20:00 +21°C° 4.4 mm 5 mps 750 mmHg 88%
    21:00 +21°C° 4.4 mm 5 mps 750 mmHg 91%
    22:00 +21°C° 6.9 mm 5 mps 750 mmHg 92%
    23:00 +21°C° 6.9 mm 5 mps 749 mmHg 93%

    Tomorrow, 23 October, Monday

    Time Temperature Precipitation Wind Pressure Humidity
    00:00 +20°C° 6.9 mm 4 mps 749 mmHg 95%
    01:00 +20°C° 7.2 mm 4 mps 748 mmHg 95%
    02:00 +20°C° 7.2 mm 4 mps 748 mmHg 96%
    03:00 +19°C° 7.2 mm 3 mps 747 mmHg 96%
    04:00 +19°C° 3.6 mm 4 mps 747 mmHg 96%
    05:00 +18°C° 3.6 mm 4 mps 747 mmHg 95%
    06:00 +18°C° 3.6 mm 4 mps 747 mmHg 94%
    07:00 +17°C° 0.2 mm 4 mps 747 mmHg 94%
    08:00 +17°C° 0.2 mm 4 mps 748 mmHg 93%
    09:00 +16°C° 0.2 mm 3 mps 748 mmHg 92%
    10:00 +17°C° 0 mm 3 mps 748 mmHg 90%
    11:00 +17°C° 0 mm 4 mps 748 mmHg 87%
    12:00 +17°C° 0 mm 4 mps 748 mmHg 85%
    13:00 +18°C° 0 mm 4 mps 748 mmHg 79%
    14:00 +18°C° 0 mm 4 mps 748 mmHg 74%
    15:00 +19°C° 0 mm 4 mps 747 mmHg 69%
    16:00 +18°C° 0 mm 3 mps 748 mmHg 71%
    17:00 +16°C° 0 mm 3 mps 748 mmHg 72%
    18:00 +15°C° 0 mm 2 mps 748 mmHg 74%
    19:00 +14°C° 0 mm 2 mps 748 mmHg 73%
    20:00 +14°C° 0 mm 2 mps 748 mmHg 71%
    21:00 +13°C° 0 mm 2 mps 748 mmHg 70%
    22:00 +13°C° 0 mm 2 mps 748 mmHg 69%
    23:00 +12°C° 0 mm 3 mps 748 mmHg 67%

    Day after tomorrow, 24 October, Tuesday

    Time Temperature Precipitation Wind Pressure Humidity
    00:00 +12°C° 0 mm 3 mps 748 mmHg 66%
    01:00 +11°C° 0 mm 3 mps 748 mmHg 69%
    02:00 +11°C° 0 mm 3 mps 748 mmHg 71%
    03:00 +11°C° 0 mm 3 mps 747 mmHg 74%
    04:00 +11°C° 0 mm 3 mps 748 mmHg 72%
    05:00 +10°C° 0 mm 3 mps 748 mmHg 71%
    06:00 +10°C° 0 mm 4 mps 748 mmHg 69%
    07:00 +11°C° 0 mm 4 mps 749 mmHg 66%
    08:00 +12°C° 0 mm 5 mps 749 mmHg 62%
    09:00 +13°C° 0 mm 5 mps 750 mmHg 58%
    10:00 +13°C° 0 mm 5 mps 750 mmHg 55%
    11:00 +14°C° 0 mm 5 mps 749 mmHg 53%
    12:00 +14°C° 0 mm 6 mps 749 mmHg 50%
    13:00 +14°C° 0 mm 5 mps 749 mmHg 50%
    14:00 +14°C° 0 mm 5 mps 749 mmHg 49%
    15:00 +14°C° 0 mm 5 mps 749 mmHg 49%
    16:00 +13°C° 0 mm 4 mps 749 mmHg 51%
    17:00 +12°C° 0 mm 3 mps 749 mmHg 53%
    18:00 +11°C° 0 mm 3 mps 750 mmHg 55%
    19:00 +11°C° 0 mm 3 mps 750 mmHg 56%
    20:00 +10°C° 0 mm 3 mps 750 mmHg 58%
    21:00 +9°C° 0 mm 3 mps 750 mmHg 59%
    22:00 +8°C° 0 mm 3 mps 750 mmHg 60%
    23:00 +7°C° 0 mm 3 mps 750 mmHg 61%

    25 October, Wednesday

    Time Temperature Precipitation Wind Pressure Humidity
    00:00 +6°C° 0 mm 2 mps 749 mmHg 63%
    01:00 +6°C° 0 mm 2 mps 749 mmHg 64%
    02:00 +5°C° 0 mm 2 mps 749 mmHg 66%
    03:00 +4°C° 0 mm 3 mps 749 mmHg 68%
    04:00 +4°C° 0 mm 2 mps 749 mmHg 70%
    05:00 +4°C° 0 mm 2 mps 749 mmHg 72%
    06:00 +4°C° 0 mm 2 mps 749 mmHg 74%
    07:00 +4°C° 0 mm 3 mps 749 mmHg 68%
    08:00 +7°C° 0 mm 3 mps 749 mmHg 63%
    09:00 +7°C° 0 mm 4 mps 749 mmHg 57%
    10:00 +8°C° 0 mm 4 mps 748 mmHg 55%
    11:00 +10°C° 0 mm 4 mps 748 mmHg 53%
    12:00 +11°C° 0 mm 4 mps 747 mmHg 50%
    13:00 +11°C° 0 mm 4 mps 746 mmHg 51%
    14:00 +12°C° 0 mm 4 mps 746 mmHg 52%
    15:00 +12°C° 0 mm 4 mps 745 mmHg 53%
    16:00 +11°C° 0 mm 3 mps 745 mmHg 57%
    17:00 +11°C° 0 mm 3 mps 745 mmHg 62%
    18:00 +10°C° 0 mm 2 mps 746 mmHg 66%
    19:00 +10°C° 0 mm 2 mps 746 mmHg 69%
    20:00 +9°C° 0 mm 2 mps 746 mmHg 71%
    21:00 +9°C° 0 mm 2 mps 746 mmHg 74%
    22:00 +9°C° 0 mm 1 mps 746 mmHg 76%
    23:00 +9°C° 0 mm 1 mps 746 mmHg 77%

    26 October, Thursday

    Time Temperature Precipitation Wind Pressure Humidity
    00:00 +8°C° 0 mm 1 mps 746 mmHg 79%
    01:00 +8°C° 0 mm 1 mps 746 mmHg 79%
    02:00 +7°C° 0 mm 1 mps 747 mmHg 79%
    03:00 +7°C° 0 mm 1 mps 747 mmHg 79%
    04:00 +7°C° 0 mm 1 mps 747 mmHg 79%
    05:00 +7°C° 0 mm 1 mps 748 mmHg 80%
    06:00 +7°C° 0 mm 1 mps 748 mmHg 80%
    07:00 +9°C° 0 mm 1 mps 749 mmHg 74%
    08:00 +10°C° 0 mm 2 mps 749 mmHg 68%
    09:00 +13°C° 0 mm 2 mps 749 mmHg 62%
    10:00 +14°C° 0 mm 3 mps 749 mmHg 58%
    11:00 +17°C° 0 mm 3 mps 749 mmHg 54%
    12:00 +18°C° 0 mm 3 mps 748 mmHg 50%
    13:00 +19°C° 0 mm 3 mps 748 mmHg 52%
    14:00 +19°C° 0 mm 3 mps 747 mmHg 55%
    15:00 +19°C° 0 mm 3 mps 747 mmHg 57%
    16:00 +18°C° 0 mm 3 mps 747 mmHg 63%
    17:00 +17°C° 0 mm 3 mps 747 mmHg 68%
    18:00 +14°C° 0 mm 3 mps 747 mmHg 74%
    19:00 +14°C° 0 mm 4 mps 747 mmHg 74%
    20:00 +14°C° 0 mm 4 mps 747 mmHg 73%
    21:00 +14°C° 0 mm 4 mps 747 mmHg 73%
    22:00 +14°C° 0 mm 4 mps 747 mmHg 73%
    23:00 +14°C° 0 mm 4 mps 747 mmHg 73%

    27 October, Friday

    Time Temperature Precipitation Wind Pressure Humidity
    00:00 +14°C° 0 mm 4 mps 747 mmHg 73%
    01:00 +14°C° 0 mm 4 mps 747 mmHg 74%
    02:00 +13°C° 0 mm 4 mps 747 mmHg 74%
    03:00 +13°C° 0 mm 5 mps 747 mmHg 75%
    04:00 +13°C° 0 mm 5 mps 747 mmHg 76%
    05:00 +13°C° 0 mm 5 mps 747 mmHg 77%
    06:00 +13°C° 0 mm 5 mps 747 mmHg 77%
    07:00 +14°C° 0 mm 5 mps 748 mmHg 75%
    08:00 +16°C° 0 mm 6 mps 748 mmHg 73%
    09:00 +17°C° 0 mm 6 mps 748 mmHg 70%
    10:00 +19°C° 0.1 mm 6 mps 748 mmHg 70%
    11:00 +20°C° 0.1 mm 6 mps 748 mmHg 70%
    12:00 +21°C° 0.1 mm 6 mps 748 mmHg 69%
    13:00 +19°C° 0.6 mm 6 mps 748 mmHg 75%
    14:00 +16°C° 0.6 mm 5 mps 748 mmHg 80%
    15:00 +14°C° 0.6 mm 5 mps 748 mmHg 86%
    16:00 +12°C° 1.5 mm 4 mps 748 mmHg 88%
    17:00 +10°C° 1.5 mm 4 mps 749 mmHg 90%
    18:00 +7°C° 1.5 mm 4 mps 749 mmHg 92%
    19:00 +8°C° 1.4 mm 3 mps 749 mmHg 92%
    20:00 +8°C° 1.4 mm 3 mps 750 mmHg 92%
    21:00 +8°C° 1.4 mm 3 mps 750 mmHg 93%
    22:00 +7°C° 1.8 mm 3 mps 750 mmHg 92%
    23:00 +7°C° 1.8 mm 3 mps 751 mmHg 92%
    Show more